TimeEDT,TemperatureF,Dew PointF,Humidity,Sea Level PressureIn,VisibilityMPH,Wind Direction,Wind SpeedMPH,Gust SpeedMPH,PrecipitationIn,Events,Conditions,WindDirDegrees,DateUTC
12:53 AM,73.0,64.9,76,30.05,10.0,WNW,6.9,-,N/A,,Clear,300,2013-05-13 04:53:00
1:53 AM,72.0,64.9,78,30.03,10.0,WNW,6.9,-,N/A,,Clear,300,2013-05-13 05:53:00
2:53 AM,71.1,66.0,84,30.02,10.0,WNW,9.2,-,N/A,,Clear,300,2013-05-13 06:53:00
3:53 AM,72.0,66.0,81,30.02,10.0,NW,6.9,-,N/A,,Clear,310,2013-05-13 07:53:00
4:53 AM,71.1,66.0,84,30.02,10.0,NW,6.9,-,N/A,,Clear,310,2013-05-13 08:53:00
5:53 AM,70.0,64.9,84,30.03,10.0,NW,4.6,-,N/A,,Scattered Clouds,320,2013-05-13 09:53:00
6:53 AM,70.0,64.0,81,30.04,10.0,NW,6.9,-,N/A,,Mostly Cloudy,320,2013-05-13 10:53:00
7:53 AM,71.1,61.0,70,30.06,10.0,NNW,8.1,-,N/A,,Partly Cloudy,340,2013-05-13 11:53:00
8:53 AM,71.1,60.1,68,30.10,10.0,NNW,8.1,-,N/A,,Mostly Cloudy,340,2013-05-13 12:53:00
9:53 AM,71.1,59.0,66,30.12,10.0,North,10.4,-,N/A,,Clear,350,2013-05-13 13:53:00
10:53 AM,73.9,59.0,59,30.14,10.0,North,9.2,18.4,N/A,,Clear,360,2013-05-13 14:53:00
11:53 AM,75.9,55.9,50,30.15,10.0,North,10.4,-,N/A,,Clear,350,2013-05-13 15:53:00
12:53 PM,78.1,54.0,43,30.14,10.0,North,9.2,-,N/A,,Clear,360,2013-05-13 16:53:00
1:53 PM,80.1,53.1,39,30.13,10.0,North,9.2,-,N/A,,Clear,360,2013-05-13 17:53:00
2:53 PM,81.0,52.0,36,30.12,10.0,North,10.4,17.3,N/A,,Clear,360,2013-05-13 18:53:00
4:53 PM,82.0,50.0,33,30.08,10.0,West,6.9,18.4,N/A,,Clear,270,2013-05-13 20:53:00
5:53 PM,81.0,48.9,33,30.08,10.0,NW,10.4,-,N/A,,Clear,320,2013-05-13 21:53:00
6:53 PM,81.0,48.9,33,30.07,10.0,NW,8.1,-,N/A,,Clear,320,2013-05-13 22:53:00
8:53 PM,70.0,53.1,55,30.13,10.0,ENE,8.1,-,N/A,,Clear,60,2013-05-14 00:53:00
9:53 PM,69.1,54.0,58,30.14,10.0,NE,5.8,-,N/A,,Clear,50,2013-05-14 01:53:00
10:53 PM,66.9,55.0,66,30.15,10.0,NE,4.6,-,N/A,,Clear,50,2013-05-14 02:53:00
11:53 PM,68.0,54.0,61,30.16,10.0,North,3.5,-,N/A,,Clear,10,2013-05-14 03:53:00